Simultaneous Nadir Overpasses (SNOs) Predictions

Prediction of SNOs between METOP-C and LANDSAT-8 Satellite Orbit:

Table of predicted SNOs for the next 14.0 days since TLE Epoch: 2/17/2024
Index Date (METOP-C) Time (METOP-C) Lat,Lon (METOP-C) SZA (METOP-C ) Date (LANDSAT-8) Time (LANDSAT-8) Lat,Lon (LANDSAT-8) SZA (LANDSAT-8 ) Distance(km) Time Diff (sec)
1 02/19/2024 20:54:39 -81.14, 86.16 85.99 02/19/2024 20:54:55 -81.13, 86.02 86.01 2.50 16
2 02/19/2024 21:45:18 81.15,-106.06 94.05 02/19/2024 21:44:20 81.16,-105.87 94.05 3.32 58
3 02/22/2024 16:29:03 -81.13, 152.38 87.02 02/22/2024 16:29:09 -81.13, 152.50 87.00 2.08 6
4 02/22/2024 17:19:41 81.16, -39.52 93.06 02/22/2024 17:18:34 81.16, -39.41 93.05 1.95 67
5 02/25/2024 11:12:45 81.11, 50.90 91.91 02/25/2024 11:13:55 81.12, 51.02 91.95 2.07 70
6 02/25/2024 12:03:25 -81.14,-141.12 88.03 02/25/2024 12:03:21 -81.14,-141.03 88.02 1.53 4
7 02/28/2024 06:47:07 81.12, 117.63 90.91 02/28/2024 06:48:07 81.12, 117.46 90.91 3.01 60
8 02/28/2024 07:37:48 -81.14, -74.72 89.07 02/28/2024 07:37:33 -81.14, -74.57 89.06 2.47 15
9 03/02/2024 02:21:30 81.12,-176.11 89.84 03/02/2024 02:22:18 81.11,-176.11 89.85 0.58 48



Historial Predications of SNOs between METOP-C and LANDSAT-8
